[[{"header":{"parameterUnit":"m.s-1","parameterCategory":1,"la1":30.2991,"la2":30.254,"lo1":-89.0895,"lo2":-89.0444,"dy":0.0017,"dx":0.0017,"nx":28,"ny":28,"refTime":"2024-07-24T03:00:00:Z","depth":0,"parameterNumber":2,"parameterNumberName":"U-component_of_WINDS"},"data":[0,0,0,0,0,0,0,0,0,0,0,0,0,0,0,0,0,0,0,0,0,0,0,0,0,0,0,0,0,0,0,0,0,0,0,0,0,0,0,0,0,0,0,0,0,0,0,0,0,0,0,0,0,0,0,0,0,0,-0.7179,-0.7179,0,-0.7166,-0.7166,-0.7165,-0.7173,-0.7173,-0.7173,-0.7174,-0.7158,-0.7157,-0.7156,0,0,0,0,0,0,0,0,0,0,0,0,0,-0.7209,-0.7208,-0.7179,-0.7179,-0.7179,-0.7166,-0.7166,-0.7165,-0.7172,-0.7173,-0.7173,-0.7174,-0.7158,-0.7157,-0.7156,0,0,0,0,0,0,0,0,0,0,0,0,0,-0.7196,-0.7208,-0.7179,-0.7181,-0.7181,-0.7166,-0.7166,-0.7165,-0.7172,-0.7173,-0.7173,-0.7174,-0.7158,-0.7157,-0.7156,-0.7138,0,0,-0.7152,-0.7152,0,0,0,0,0,0,0,0,-0.7197,-0.7195,-0.7181,-0.7181,-0.7181,-0.7171,-0.717,-0.7156,-0.7172,-0.7175,-0.7174,-0.7174,-0.7162,-0.716,-0.7156,-0.7137,-0.7136,-0.7152,-0.7152,-0.7151,-0.7151,0,0,0,0,0,0,0,-0.7197,-0.7195,-0.7174,-0.7181,-0.718,-0.7182,-0.718,-0.7168,-0.7166,-0.7175,-0.7176,-0.7174,-0.7162,-0.7158,-0.7156,-0.7136,-0.7152,-0.7151,-0.7151,-0.715,-0.7101,-0.71,0,0,0,0,0,0,-0.7199,-0.7196,-0.7174,-0.7173,-0.719,-0.7181,-0.7179,-0.7174,-0.7166,-0.7165,-0.7174,-0.7175,-0.7159,-0.7157,-0.7156,-0.7133,-0.7151,-0.715,-0.7149,-0.7102,-0.7101,-0.71,0,0,0,0,0,0,-0.7199,-0.7197,-0.7175,-0.7185,-0.7182,-0.718,-0.7173,-0.7173,-0.7169,-0.7165,-0.7164,-0.717,-0.716,-0.7157,-0.7142,-0.7133,-0.715,-0.7149,-0.7102,-0.7101,-0.7101,-0.7089,0,0,0,0,0,0,-0.72,-0.7197,-0.719,-0.7185,-0.7182,-0.7162,-0.7173,-0.7173,-0.7167,-0.7168,-0.7161,-0.716,-0.716,-0.7144,-0.7141,-0.7131,-0.7148,-0.7103,-0.7102,-0.7101,-0.709,-0.7087,-0.7085,0,0,0,0,0,-0.7201,-0.7187,-0.719,-0.7187,-0.7173,-0.7162,-0.716,-0.716,-0.7167,-0.716,-0.7157,-0.716,-0.7135,-0.7142,-0.7139,-0.7129,-0.7104,-0.7102,-0.7101,-0.7091,-0.7088,-0.7085,0,0,0,0,0,0,-0.719,-0.7186,-0.7189,-0.7173,-0.7168,-0.7163,-0.7154,-0.7157,-0.7149,-0.715,-0.7151,-0.7149,-0.7133,-0.713,-0.7139,-0.7111,-0.712,-0.7118,-0.7113,-0.7111,-0.7108,-0.7109,-0.7147,0,0,0,0,0,-0.7186,-0.7178,-0.7174,-0.716,-0.7158,-0.7156,-0.7151,-0.7152,-0.7146,-0.7144,-0.714,-0.7133,-0.7124,-0.7117,-0.7108,-0.709,-0.7088,-0.7082,-0.7079,-0.7078,-0.7075,-0.7064,-0.7061,-0.7096,-0.7096,-0.7096,0,0,-0.7177,-0.7174,-0.7168,-0.7158,-0.7154,-0.7144,-0.7154,-0.7143,-0.7136,-0.7142,-0.7127,-0.7124,-0.7117,-0.71,-0.7093,-0.7097,-0.7066,-0.7076,-0.7074,-0.7073,-0.7063,-0.7059,-0.7056,-0.7095,-0.7095,-0.7095,0,0,-0.7156,-0.7153,-0.7141,-0.7137,-0.7131,-0.713,-0.7127,-0.7122,-0.7121,-0.7106,-0.7111,-0.7102,-0.7085,-0.708,-0.7075,-0.7053,-0.7055,-0.705,-0.7037,-0.7027,-0.7024,-0.7022,-0.7012,-0.7009,-0.7048,-0.7048,-0.7048,0,-0.7145,-0.7131,-0.7134,-0.7123,-0.7118,-0.7124,-0.7111,-0.7107,-0.7098,-0.7094,-0.71,-0.7079,-0.7075,-0.7057,-0.7051,-0.7048,-0.7044,-0.705,-0.7024,-0.7022,-0.702,-0.7011,-0.7007,-0.7047,-0.7047,-0.7047,-0.7047,0,-0.7117,-0.7108,-0.7099,-0.7091,-0.7085,-0.7073,-0.7073,-0.7067,-0.7069,-0.7068,-0.7053,-0.7049,-0.7038,-0.7035,-0.7036,-0.7016,-0.7019,-0.7025,-0.7033,-0.7016,-0.7007,-0.7004,-0.7046,-0.7046,-0.7046,-0.7047,0,0,-0.7087,-0.7082,-0.7078,-0.7074,-0.7069,-0.7061,-0.705,-0.7041,-0.7035,-0.7029,-0.7018,-0.7005,-0.701,-0.7005,-0.7006,-0.6997,-0.6978,-0.7003,-0.7003,-0.6998,-0.6955,-0.6949,-0.6945,-0.6981,-0.698,-0.698,-0.6955,0,-0.7064,-0.7044,-0.7046,-0.7027,-0.7018,-0.7024,-0.7014,-0.7009,-0.7008,-0.7,-0.6998,-0.6988,-0.6996,-0.6993,-0.6985,-0.6982,-0.6969,-0.6984,-0.697,-0.6969,-0.6969,-0.6941,-0.6935,-0.6912,-0.6952,-0.6951,-0.6951,0,-0.7033,-0.7027,-0.7007,-0.7003,-0.6999,-0.699,-0.6982,-0.6974,-0.6969,-0.6969,-0.6963,-0.6966,-0.6954,-0.6965,-0.6947,-0.6957,-0.6952,-0.695,-0.6949,-0.6946,-0.6957,-0.6936,-0.6905,-0.69,-0.6946,-0.6946,-0.6947,0,-0.7011,-0.6998,-0.6984,-0.6981,-0.6976,-0.697,-0.6967,-0.6963,-0.6957,-0.695,-0.6946,-0.6938,-0.6933,-0.6926,-0.6927,-0.6935,-0.6909,-0.692,-0.6907,-0.6907,-0.6899,-0.6899,-0.6865,-0.6899,-0.6899,-0.6899,-0.6899,0,-0.6984,-0.6971,-0.6974,-0.6965,-0.6951,-0.6954,-0.694,-0.6938,-0.6934,-0.6925,-0.693,-0.6921,-0.6923,-0.6914,-0.6914,-0.6899,-0.6897,-0.6896,-0.6896,-0.6894,-0.6894,-0.6889,-0.689,-0.6898,-0.6898,-0.6899,-0.6899,0,-0.6955,-0.6957,-0.6942,-0.694,-0.6939,-0.6928,-0.6926,-0.6917,-0.6917,-0.6905,-0.6902,-0.6902,-0.6891,-0.6892,-0.688,-0.688,-0.6861,-0.6864,-0.6863,-0.6863,-0.6849,-0.685,-0.6809,-0.6803,-0.6843,-0.6842,-0.6842,0,-0.6937,-0.6927,-0.6924,-0.6918,-0.6916,-0.6907,-0.6901,-0.6905,-0.6899,-0.6892,-0.6884,-0.6875,-0.6867,-0.685,-0.6848,-0.6839,-0.684,-0.6827,-0.6839,-0.6837,-0.6838,-0.6837,-0.6836,-0.6823,-0.6823,-0.6823,-0.6822,0,-0.6903,-0.6905,-0.6897,-0.689,-0.6883,-0.6878,-0.6873,-0.6868,-0.687,-0.6863,-0.6853,-0.6847,-0.6836,-0.6825,-0.6817,-0.6814,-0.6818,-0.6819,-0.6815,-0.6812,-0.6811,-0.681,-0.6854,-0.6819,-0.6819,-0.682,-0.682,-0.682,-0.6878,-0.6869,-0.6865,-0.6857,-0.6854,-0.6849,-0.684,-0.684,-0.6832,-0.6823,-0.6826,-0.6814,-0.6809,-0.6798,-0.6794,-0.6785,-0.6789,-0.6784,-0.6783,-0.6781,-0.6778,-0.6815,-0.6783,-0.6784,-0.6784,-0.6784,-0.6784,0,-0.6842,-0.6841,-0.6833,-0.6826,-0.6819,-0.6826,-0.682,-0.6814,-0.6803,-0.6799,-0.6792,-0.678,-0.677,-0.6769,-0.6759,-0.6752,-0.6753,-0.6749,-0.6748,-0.6747,-0.6776,-0.6779,-0.6748,-0.6748,-0.6748,-0.6748,-0.6748,-0.6748,-0.6823,-0.6809,-0.681,-0.6794,-0.6793,-0.6781,-0.6778,-0.6773,-0.677,-0.6756,-0.6749,-0.6748,-0.6744,-0.6735,-0.6727,-0.6726,-0.6722,-0.6716,-0.6716,-0.6742,-0.6746,-0.6749,-0.6752,-0.6716,-0.6716,-0.6689,-0.6688,-0.6688]},{"header":{"parameterUnit":"m.s-1","parameterCategory":1,"la1":30.2991,"la2":30.254,"lo1":-89.0895,"lo2":-89.0444,"dy":0.0017,"dx":0.0017,"nx":28,"ny":28,"refTime":"2024-07-24T03:00:00:Z","depth":0,"parameterNumber":3,"parameterNumberName":"V-component_of_WINDS"},"data":[0,0,0,0,0,0,0,0,0,0,0,0,0,0,0,0,0,0,0,0,0,0,0,0,0,0,0,0,0,0,0,0,0,0,0,0,0,0,0,0,0,0,0,0,0,0,0,0,0,0,0,0,0,0,0,0,0,0,0.6369,0.6367,0,0.6219,0.6217,0.6215,0.6077,0.6076,0.6074,0.6073,0.5915,0.5913,0.591,0,0,0,0,0,0,0,0,0,0,0,0,0,0.6533,0.653,0.6369,0.6367,0.6365,0.6219,0.6217,0.6215,0.6078,0.6076,0.6074,0.6072,0.5916,0.5913,0.591,0,0,0,0,0,0,0,0,0,0,0,0,0,0.643,0.653,0.637,0.6279,0.627,0.6219,0.6217,0.6214,0.6078,0.6076,0.6073,0.6071,0.5917,0.5913,0.5909,0.5935,0,0,0.5897,0.5896,0,0,0,0,0,0,0,0,0.6436,0.6424,0.6295,0.6286,0.6275,0.6164,0.6217,0.6121,0.6079,0.6151,0.6073,0.607,0.6,0.5989,0.5966,0.5928,0.5921,0.5897,0.5895,0.5893,0.5892,0,0,0,0,0,0,0,0.6443,0.643,0.6309,0.6293,0.6281,0.6245,0.6228,0.6198,0.6091,0.6144,0.6134,0.6118,0.5994,0.597,0.5961,0.5918,0.5897,0.5894,0.5891,0.589,0.589,0.5892,0,0,0,0,0,0,0.6465,0.6437,0.6314,0.6305,0.6351,0.6244,0.6225,0.6202,0.6091,0.6072,0.6121,0.6112,0.5978,0.5966,0.5955,0.5977,0.5893,0.5889,0.5887,0.5888,0.5891,0.5893,0,0,0,0,0,0,0.6469,0.6455,0.632,0.6368,0.6348,0.6244,0.622,0.6201,0.6177,0.6073,0.6053,0.6117,0.5976,0.5961,0.5941,0.5969,0.5887,0.5884,0.5885,0.5889,0.5892,0.6021,0,0,0,0,0,0,0.6474,0.6457,0.6468,0.6369,0.6346,0.631,0.6222,0.62,0.6171,0.6159,0.6064,0.6046,0.5973,0.5947,0.5937,0.5962,0.5881,0.5882,0.5887,0.5891,0.6014,0.6028,0.6041,0,0,0,0,0,0.648,0.651,0.6469,0.6455,0.6357,0.6312,0.6299,0.6215,0.6174,0.6182,0.6115,0.6049,0.5968,0.5946,0.5933,0.5958,0.588,0.5885,0.5891,0.6007,0.6025,0.6041,0,0,0,0,0,0,0.6614,0.6495,0.6449,0.6447,0.6391,0.6289,0.6297,0.6237,0.6191,0.6182,0.6078,0.6058,0.6049,0.6001,0.598,0.5976,0.5914,0.5918,0.6008,0.6024,0.6038,0.605,0.5877,0,0,0,0,0,0.6643,0.6618,0.6515,0.6524,0.6498,0.6403,0.638,0.6321,0.6258,0.6233,0.6164,0.6105,0.6065,0.6042,0.6,0.6005,0.5982,0.6016,0.6029,0.6041,0.6045,0.6043,0.6056,0.5911,0.5911,0.5911,0,0,0.6703,0.6635,0.6626,0.6549,0.6498,0.6473,0.6384,0.6361,0.6341,0.6229,0.6206,0.6153,0.608,0.6072,0.6065,0.6032,0.608,0.6048,0.6058,0.6056,0.605,0.6063,0.6076,0.5915,0.5914,0.5913,0,0,0.68,0.6747,0.6747,0.6698,0.6623,0.6559,0.6559,0.6466,0.6427,0.6402,0.6317,0.629,0.6225,0.6176,0.6142,0.6218,0.6154,0.6206,0.6279,0.6277,0.6289,0.6299,0.6325,0.6336,0.6211,0.6211,0.6211,0,0.6884,0.6845,0.6755,0.6738,0.6705,0.6603,0.6601,0.6557,0.6472,0.6451,0.6415,0.633,0.6273,0.6252,0.627,0.6247,0.6242,0.6218,0.6295,0.6303,0.6311,0.6335,0.6345,0.6218,0.6217,0.6216,0.6216,0,0.6951,0.6925,0.6934,0.6855,0.6823,0.6814,0.6721,0.67,0.6642,0.6582,0.6556,0.6484,0.6425,0.6415,0.6359,0.6385,0.6367,0.6314,0.6251,0.6333,0.6354,0.6362,0.6228,0.6225,0.6223,0.6221,0,0,0.713,0.7,0.7005,0.6967,0.6875,0.6852,0.6836,0.678,0.6763,0.6706,0.669,0.6636,0.6586,0.6548,0.6485,0.6484,0.6547,0.643,0.6427,0.6454,0.657,0.6611,0.6623,0.6504,0.6505,0.6506,0.6576,0,0.7212,0.7181,0.7098,0.7092,0.7065,0.6966,0.6952,0.6893,0.6836,0.6803,0.6738,0.6702,0.6639,0.6615,0.6609,0.6541,0.6569,0.6534,0.6487,0.6486,0.6509,0.6634,0.6677,0.6747,0.6584,0.6585,0.6586,0,0.7304,0.7254,0.7246,0.7153,0.7139,0.7129,0.7069,0.7039,0.6969,0.6927,0.6884,0.6813,0.6789,0.673,0.6695,0.6674,0.6649,0.6612,0.6612,0.6605,0.6542,0.6631,0.6767,0.6778,0.6598,0.6597,0.6596,0,0.7435,0.7366,0.7351,0.7322,0.7213,0.7208,0.7163,0.709,0.706,0.7007,0.6986,0.6931,0.6901,0.6859,0.6774,0.6739,0.6748,0.6682,0.6712,0.6714,0.6719,0.672,0.6854,0.6703,0.6702,0.6702,0.6702,0,0.7536,0.7534,0.7409,0.74,0.7394,0.7298,0.7294,0.7239,0.7175,0.7152,0.7062,0.7042,0.6931,0.6898,0.6831,0.6811,0.6798,0.6762,0.6745,0.6771,0.6776,0.6754,0.6747,0.6705,0.6704,0.6704,0.6703,0,0.7682,0.7598,0.7576,0.7474,0.7449,0.7449,0.7361,0.7348,0.7284,0.7256,0.7244,0.7143,0.7099,0.7009,0.6941,0.6895,0.6891,0.686,0.6916,0.6905,0.6939,0.6938,0.7065,0.7076,0.6918,0.692,0.6921,0,0.7753,0.7749,0.7647,0.7626,0.7584,0.7551,0.752,0.7424,0.7395,0.7314,0.731,0.7258,0.7213,0.7146,0.7066,0.7012,0.6979,0.7027,0.697,0.6996,0.6979,0.6981,0.6979,0.704,0.7042,0.7044,0.7046,0,0.7886,0.7844,0.7804,0.7749,0.7715,0.7666,0.7613,0.76,0.7491,0.7462,0.7417,0.7381,0.731,0.726,0.7194,0.7144,0.7077,0.7064,0.7068,0.7095,0.7128,0.711,0.6951,0.7062,0.706,0.7059,0.7058,0.7057,0.7996,0.7988,0.7915,0.7872,0.7822,0.7774,0.7756,0.7689,0.7649,0.7585,0.753,0.7489,0.7415,0.732,0.7274,0.7239,0.7206,0.7212,0.7214,0.7217,0.7228,0.7133,0.7227,0.7226,0.7226,0.7225,0.7225,0,0.8125,0.8072,0.8034,0.7963,0.7929,0.7868,0.7805,0.778,0.7745,0.7683,0.764,0.7586,0.7536,0.7451,0.7394,0.7382,0.7349,0.737,0.737,0.736,0.7261,0.7263,0.7397,0.7397,0.7397,0.7397,0.7397,0.7397,0.8188,0.8171,0.812,0.8075,0.8021,0.7982,0.7951,0.7905,0.7855,0.7799,0.7758,0.7703,0.763,0.7567,0.7518,0.7493,0.7477,0.7508,0.7474,0.7383,0.7367,0.7352,0.7353,0.7505,0.7505,0.7576,0.7577,0.7577]}]]